TimeEST,TemperatureF,Dew PointF,Humidity,Sea Level PressureIn,VisibilityMPH,Wind Direction,Wind SpeedMPH,Gust SpeedMPH,PrecipitationIn,Events,Conditions,WindDirDegrees,DateUTC
12:14 AM,21.2,19.4,93,30.03,5.0,Calm,Calm,-,N/A,Snow,Light Snow,0,2013-01-26 05:14:00
12:35 AM,21.2,19.4,93,30.03,4.0,Calm,Calm,-,N/A,Snow,Light Snow,0,2013-01-26 05:35:00
12:55 AM,21.2,21.2,100,30.03,4.0,Calm,Calm,-,N/A,Snow,Light Snow,0,2013-01-26 05:55:00
1:14 AM,21.2,21.2,100,30.05,5.0,West,4.6,-,N/A,Snow,Light Snow,260,2013-01-26 06:14:00
1:35 AM,21.2,21.2,100,30.05,5.0,West,4.6,-,N/A,Snow,Light Snow,260,2013-01-26 06:35:00
1:55 AM,23.0,21.2,93,30.06,5.0,West,3.5,-,N/A,Snow,Light Snow,270,2013-01-26 06:55:00
2:15 AM,23.0,21.2,93,30.07,5.0,West,4.6,-,N/A,Snow,Light Snow,280,2013-01-26 07:15:00
2:35 AM,23.0,21.2,93,30.08,5.0,Calm,Calm,-,N/A,Snow,Light Snow,0,2013-01-26 07:35:00
2:55 AM,23.0,21.2,93,30.09,5.0,WNW,4.6,-,N/A,Snow,Light Snow,300,2013-01-26 07:55:00
3:15 AM,23.0,21.2,93,30.09,7.0,NW,4.6,-,N/A,Snow,Light Snow,310,2013-01-26 08:15:00
3:35 AM,23.0,21.2,93,30.10,5.0,NW,4.6,-,N/A,Snow,Light Snow,310,2013-01-26 08:35:00
3:54 AM,21.2,19.4,93,30.11,4.0,North,8.1,-,N/A,Snow,Light Snow,360,2013-01-26 08:54:00
4:15 AM,21.2,17.6,86,30.11,5.0,North,4.6,-,N/A,Snow,Light Snow,360,2013-01-26 09:15:00
4:35 AM,21.2,17.6,86,30.12,7.0,North,4.6,-,N/A,Snow,Light Snow,350,2013-01-26 09:35:00
4:54 AM,21.2,17.6,86,30.12,7.0,Calm,Calm,-,N/A,Snow,Light Snow,0,2013-01-26 09:54:00
5:15 AM,21.2,17.6,86,30.13,7.0,Calm,Calm,-,N/A,Snow,Light Snow,0,2013-01-26 10:15:00
5:34 AM,21.2,17.6,86,30.13,10.0,NNW,4.6,-,N/A,Snow,Light Snow,330,2013-01-26 10:34:00
5:55 AM,21.2,17.6,86,30.14,7.0,NW,3.5,-,N/A,Snow,Light Snow,320,2013-01-26 10:55:00
6:14 AM,21.2,17.6,86,30.16,7.0,NW,4.6,-,N/A,Snow,Light Snow,320,2013-01-26 11:14:00
6:35 AM,21.2,17.6,86,30.17,3.0,NNW,3.5,-,N/A,Snow,Light Snow,330,2013-01-26 11:35:00
6:55 AM,21.2,17.6,86,30.18,3.0,NNW,3.5,-,N/A,Snow,Light Snow,330,2013-01-26 11:55:00
7:14 AM,21.2,17.6,86,30.19,4.0,Calm,Calm,-,N/A,Snow,Light Snow,0,2013-01-26 12:14:00
7:35 AM,21.2,17.6,86,30.19,4.0,Calm,Calm,-,N/A,Snow,Light Snow,0,2013-01-26 12:35:00
7:55 AM,19.4,17.6,93,30.20,2.5,Calm,Calm,-,N/A,Snow,Light Snow,0,2013-01-26 12:55:00
8:14 AM,19.4,17.6,93,30.21,2.5,Calm,Calm,-,N/A,Snow,Light Snow,0,2013-01-26 13:14:00
8:35 AM,21.2,17.6,86,30.22,1.5,Calm,Calm,-,N/A,Snow,Light Snow,0,2013-01-26 13:35:00
8:55 AM,21.2,19.4,93,30.23,3.0,Calm,Calm,-,N/A,Snow,Light Snow,0,2013-01-26 13:55:00
9:14 AM,19.4,17.6,93,30.24,5.0,Calm,Calm,-,N/A,Snow,Light Snow,0,2013-01-26 14:14:00
9:35 AM,21.2,19.4,93,30.25,1.5,Calm,Calm,-,N/A,Snow,Light Snow,0,2013-01-26 14:35:00
9:54 AM,21.2,17.6,86,30.26,5.0,NNW,4.6,-,N/A,Snow,Light Snow,340,2013-01-26 14:54:00
10:15 AM,21.2,15.8,80,30.27,10.0,North,8.1,-,N/A,Snow,Light Snow,350,2013-01-26 15:15:00
10:35 AM,21.2,15.8,80,30.28,10.0,NNW,9.2,-,N/A,,Mostly Cloudy,330,2013-01-26 15:35:00
10:54 AM,23.0,15.8,74,30.29,10.0,NNW,5.8,-,N/A,,Mostly Cloudy,340,2013-01-26 15:54:00
11:15 AM,24.8,15.8,69,30.30,10.0,NNW,8.1,-,N/A,,Overcast,330,2013-01-26 16:15:00
11:54 AM,24.8,15.8,69,30.31,10.0,NNW,5.8,-,N/A,,Overcast,340,2013-01-26 16:54:00
12:15 PM,24.8,14.0,64,30.31,10.0,NW,8.1,-,N/A,,Overcast,310,2013-01-26 17:15:00
12:35 PM,24.8,14.0,64,30.31,10.0,WNW,3.5,-,N/A,,Overcast,300,2013-01-26 17:35:00
12:54 PM,24.8,15.8,69,30.31,10.0,West,4.6,-,N/A,,Overcast,280,2013-01-26 17:54:00
1:15 PM,24.8,15.8,69,30.30,10.0,NNW,4.6,-,N/A,,Overcast,330,2013-01-26 18:15:00
1:35 PM,24.8,15.8,69,30.30,10.0,NW,3.5,-,N/A,,Overcast,310,2013-01-26 18:35:00
1:54 PM,26.6,15.8,64,30.30,10.0,NNW,6.9,-,N/A,,Overcast,330,2013-01-26 18:54:00
2:15 PM,26.6,15.8,64,30.30,10.0,Calm,Calm,-,N/A,,Overcast,0,2013-01-26 19:15:00
2:34 PM,26.6,15.8,64,30.30,10.0,North,6.9,-,N/A,,Overcast,350,2013-01-26 19:34:00
2:55 PM,26.6,17.6,69,30.31,10.0,West,4.6,-,N/A,,Overcast,280,2013-01-26 19:55:00
3:15 PM,26.6,17.6,69,30.31,10.0,West,5.8,-,N/A,,Mostly Cloudy,280,2013-01-26 20:15:00
3:34 PM,26.6,15.8,64,30.31,10.0,NNW,3.5,-,N/A,,Mostly Cloudy,330,2013-01-26 20:34:00
3:55 PM,24.8,15.8,69,30.32,10.0,NNW,6.9,-,N/A,,Mostly Cloudy,330,2013-01-26 20:55:00
4:14 PM,24.8,15.8,69,30.33,10.0,NW,5.8,-,N/A,,Scattered Clouds,310,2013-01-26 21:14:00
4:35 PM,24.8,15.8,69,30.33,10.0,Calm,Calm,-,N/A,,Clear,0,2013-01-26 21:35:00
4:55 PM,24.8,15.8,69,30.34,10.0,Calm,Calm,-,N/A,,Clear,0,2013-01-26 21:55:00
5:14 PM,24.8,15.8,69,30.33,10.0,Calm,Calm,-,N/A,,Clear,0,2013-01-26 22:14:00
5:35 PM,24.8,15.8,69,30.36,10.0,West,3.5,-,N/A,,Scattered Clouds,280,2013-01-26 22:35:00
5:54 PM,24.8,15.8,69,30.36,10.0,Calm,Calm,-,N/A,,Clear,0,2013-01-26 22:54:00
6:15 PM,23.0,15.8,74,30.37,10.0,Calm,Calm,-,N/A,,Clear,0,2013-01-26 23:15:00
6:35 PM,21.2,15.8,80,30.37,10.0,Calm,Calm,-,N/A,,Clear,0,2013-01-26 23:35:00
6:54 PM,21.2,15.8,80,30.37,10.0,Calm,Calm,-,N/A,,Clear,0,2013-01-26 23:54:00
7:15 PM,19.4,14.0,80,30.37,10.0,Calm,Calm,-,N/A,,Clear,0,2013-01-27 00:15:00
7:35 PM,19.4,14.0,80,30.38,10.0,Calm,Calm,-,N/A,,Clear,0,2013-01-27 00:35:00
7:54 PM,17.6,12.2,79,30.38,10.0,Calm,Calm,-,N/A,,Clear,0,2013-01-27 00:54:00
8:15 PM,17.6,12.2,79,30.38,7.0,Calm,Calm,-,N/A,,Clear,0,2013-01-27 01:15:00
8:35 PM,15.8,12.2,86,30.37,10.0,Calm,Calm,-,N/A,,Clear,0,2013-01-27 01:35:00
8:54 PM,14.0,10.4,86,30.35,10.0,Calm,Calm,-,N/A,,Clear,0,2013-01-27 01:54:00
9:15 PM,14.0,10.4,86,30.37,10.0,Calm,Calm,-,N/A,,Clear,0,2013-01-27 02:15:00
9:35 PM,17.6,14.0,86,30.38,5.0,Calm,Calm,-,N/A,,Clear,0,2013-01-27 02:35:00
9:55 PM,17.6,14.0,86,30.39,7.0,Calm,Calm,-,N/A,,Clear,0,2013-01-27 02:55:00
10:15 PM,17.6,14.0,86,30.38,10.0,Calm,Calm,-,N/A,,Clear,0,2013-01-27 03:15:00
10:34 PM,15.8,12.2,86,30.39,10.0,Calm,Calm,-,N/A,,Clear,0,2013-01-27 03:34:00
10:55 PM,17.6,14.0,86,30.39,10.0,Calm,Calm,-,N/A,,Clear,0,2013-01-27 03:55:00
11:15 PM,17.6,14.0,86,30.40,10.0,Calm,Calm,-,N/A,,Clear,0,2013-01-27 04:15:00
11:34 PM,17.6,15.8,93,30.40,10.0,Calm,Calm,-,N/A,,Clear,0,2013-01-27 04:34:00
11:55 PM,19.4,15.8,86,30.40,10.0,Calm,Calm,-,N/A,,Clear,0,2013-01-27 04:55:00